Terminal Aerodrome Forecast
Issued by NWS Lake Charles, LA

Home | Current Version | Previous Version | Text Only | Print | Product List | Glossary On
Versions: 1 2 3 4 5 6 7 8 9 10 11 12 13 14 15 16 17 18 19 20 21 22
000
FTUS44 KLCH 212326
TAFLFT
TAF
KLFT 212326Z 2200/2224 25004KT P6SM VCSH SCT025
     FM220500 VRB04KT 5SM BR SCT008
      TEMPO 2208/2212 1SM BR BKN003
     FM221500 35005KT P6SM BKN025
     FM221800 35008KT P6SM SCT025=

USA.gov is the U.S. government's official web portal to all federal, state and local government web resources and services.